Flag for Canada Weather past 2 weeks in Whistler, British Columbia, Canada

Now
58 °F

Cool.


Feels Like: 57 °F
Forecast: 42 / 61 °F
Wind: 9 mph from South

Location: Squamish Airport

Current Time: Mar 27, 2015 at 2:56:21 PM

Latest Report: Mar 27, 2015 at 2:00 PM


Visibility: N/A

Pressure: 29.91 "Hg

Humidity: 75%

Dew point: 50 °F

Location of WhistlerLocation

Historic Weather in Whistler — Graph

°F

Whistler temperature yesterday

Maximum temperature yesterday: 57 °F (at 5:00 PM)
Minimum temperature yesterday: 44 °F (at 2:00 AM)
Average temperature yesterday: 49 °F

Past Weeks' High & Low Weather Summary

 TemperatureHumidityPressure
High62 °F (Mar 13, 3:00 PM)100% (Mar 13, 9:00 AM)30.38 "Hg (Mar 13, 9:00 AM)
Low33 °F (Mar 16, 7:00 AM)19% (Mar 16, 3:00 PM)29.62 "Hg (Mar 14, 11:00 AM)
Average47 °F85%30.05 "Hg
* Reported Mar 12 1:00 PM — Mar 27 1:00 PM, Whistler, Weather by CustomWeather, © 2015

Note: Actual official high and low records may vary slightly from our data, if they occured in-between our weather recording intervals... More about our weather records

Advertising

Whistler weather history for previous 24 hours

 ConditionsComfort  
Time TempWeatherWind HumidityBarometerVisibility
1:00 PM
Fri, Mar 27
57 °FCool.No wind76%29.95 "HgN/A
12:00 PM55 °FCool.1 mph90%29.97 "HgN/A
11:00 AM51 °FCool.2 mph100%29.99 "HgN/A
10:00 AM48 °FCool.1 mph100%30.00 "HgN/A
9:00 AM46 °FCool.2 mph100%30.01 "HgN/A
8:00 AM44 °FQuite cool.1 mph100%30.02 "HgN/A
7:00 AM44 °FQuite cool.1 mph93%30.04 "HgN/A
6:00 AM44 °FQuite cool.2 mph100%30.05 "HgN/A
5:00 AM44 °FQuite cool.2 mph99%30.06 "HgN/A
4:00 AM46 °FCool.1 mph99%30.09 "HgN/A
3:00 AM46 °FCool.2 mph100%30.10 "HgN/A
2:00 AM47 °FCool.1 mph99%30.13 "HgN/A
1:00 AM48 °FCool.1 mph100%30.14 "HgN/A
12:00 AM48 °FCool.1 mph99%30.15 "HgN/A
11:00 PM
Thu, Mar 26
49 °FCool.No wind99%30.16 "HgN/A
10:00 PM50 °FCool.2 mph99%30.16 "HgN/A
9:00 PM49 °FCool.1 mph100%30.16 "HgN/A
8:00 PM52 °FCool.1 mph96%30.16 "HgN/A
7:00 PM54 °FCool.1 mph92%30.16 "HgN/A
6:00 PM56 °FCool.2 mph86%30.16 "HgN/A
5:00 PM57 °FCool.2 mph84%30.17 "HgN/A
4:00 PM57 °FCool.1 mph84%30.19 "HgN/A
3:00 PM56 °FCool.2 mph86%30.21 "HgN/A
2:00 PM54 °FCool.2 mph87%30.23 "HgN/A
Weather by CustomWeather, © 2015

See weather overviewHow to use our weather pages